| time (UTC) | temp F | wind direction | speed MPH | gust MPH | rain 1hr in | rain 24hr in | rain mn in | humidity % | barometer mb |
| 20260505023523 | 48 | 0 | 1.0 | 3.0 | 0.00 | 0.00 | 0.00 | 58 | 1012.2 |
| 20260505022523 | 49 | 343 | 2.0 | 3.0 | 0.00 | 0.00 | 0.00 | 58 | 1012.0 |
| 20260505021524 | 50 | 329 | 1.0 | 2.0 | 0.00 | 0.00 | 0.00 | 52 | 1011.9 |
| 20260505020524 | 51 | 282 | 1.0 | 3.0 | 0.00 | 0.00 | 0.00 | 48 | 1011.7 |
| 20260505015524 | 52 | 333 | 1.0 | 2.0 | 0.00 | 0.00 | 0.00 | 47 | 1011.5 |
| 20260505014521 | 52 | 56 | 6.0 | 8.0 | 0.00 | 0.00 | 0.00 | 45 | 1011.4 |
| 20260505013518 | 53 | 41 | 8.0 | 15.0 | 0.00 | 0.00 | 0.00 | 45 | 1011.4 |
| 20260505012522 | 54 | 40 | 7.0 | 10.0 | 0.00 | 0.00 | 0.00 | 41 | 1011.3 |
| 20260505011522 | 54 | 35 | 6.0 | 9.0 | 0.00 | 0.00 | 0.00 | 42 | 1011.1 |
| 20260505010522 | 55 | 360 | 4.0 | 8.0 | 0.00 | 0.00 | 0.00 | 40 | 1011.1 |
| 20260505005525 | 56 | 334 | 2.0 | 3.0 | 0.00 | 0.00 | 0.00 | 35 | 1010.9 |
| 20260505004519 | 56 | 303 | 6.0 | 13.0 | 0.00 | 0.00 | 0.00 | 35 | 1010.9 |
| 20260505003542 | 56 | 296 | 6.0 | 8.0 | 0.00 | 0.00 | 0.00 | 36 | 1011.0 |
| 20260505002603 | 57 | 289 | 5.0 | 7.0 | 0.00 | 0.00 | 0.00 | 34 | 1010.9 |
| 20260505001523 | 57 | 276 | 5.0 | 6.0 | 0.00 | 0.00 | 0.00 | 33 | 1010.9 |
| 20260505000517 | 57 | 289 | 5.0 | 8.0 | 0.00 | 0.00 | 0.00 | 33 | 1010.9 |
| 20260504235517 | 57 | 311 | 3.0 | 7.0 | 0.00 | 0.00 | 0.00 | 32 | 1010.9 |
| 20260504234526 | 58 | 338 | 1.0 | 4.0 | 0.00 | 0.00 | 0.00 | 30 | 1011.0 |
| 20260504233526 | 58 | 261 | 1.0 | 3.0 | 0.00 | 0.00 | 0.00 | 31 | 1011.0 |
| 20260504232546 | 58 | 14 | 1.0 | 3.0 | 0.00 | 0.00 | 0.00 | 31 | 1011.1 |
| 20260504231518 | 58 | 350 | 4.0 | 6.0 | 0.00 | 0.00 | 0.00 | 31 | 1011.0 |
| 20260504230518 | 58 | 254 | 7.0 | 12.0 | 0.00 | 0.00 | 0.00 | 30 | 1010.9 |
| 20260504225518 | 58 | 252 | 5.0 | 9.0 | 0.00 | 0.00 | 0.00 | 31 | 1010.9 |
| 20260504224518 | 58 | 276 | 2.0 | 7.0 | 0.00 | 0.00 | 0.00 | 31 | 1010.9 |
| 20260504223518 | 57 | 259 | 5.0 | 8.0 | 0.00 | 0.00 | 0.00 | 32 | 1011.2 |
| 20260504222519 | 57 | 257 | 6.0 | 12.0 | 0.00 | 0.00 | 0.00 | 32 | 1011.3 |
| 20260504221539 | 57 | 284 | 4.0 | 7.0 | 0.00 | 0.00 | 0.00 | 33 | 1011.4 |
| 20260504220528 | 57 | 313 | 2.0 | 3.0 | 0.00 | 0.00 | 0.00 | 33 | 1011.5 |
| 20260504215548 | 56 | 328 | 3.0 | 5.0 | 0.00 | 0.00 | 0.00 | 34 | 1011.8 |
| 20260504214519 | 56 | 275 | 5.0 | 10.0 | 0.00 | 0.00 | 0.00 | 35 | 1011.9 |
| 20260504213540 | 56 | 266 | 6.0 | 11.0 | 0.00 | 0.00 | 0.00 | 35 | 1012.0 |
| 20260504212519 | 56 | 255 | 3.0 | 5.0 | 0.00 | 0.00 | 0.00 | 35 | 1012.1 |
| 20260504211520 | 56 | 282 | 3.0 | 6.0 | 0.00 | 0.00 | 0.00 | 35 | 1012.4 |
| 20260504210529 | 56 | 206 | 1.0 | 6.0 | 0.00 | 0.00 | 0.00 | 35 | 1012.6 |
| 20260504205540 | 56 | 351 | 4.0 | 6.0 | 0.00 | 0.00 | 0.00 | 36 | 1012.7 |
| 20260504204540 | 56 | 290 | 4.0 | 6.0 | 0.00 | 0.00 | 0.00 | 36 | 1012.9 |
| 20260504203540 | 56 | 299 | 5.0 | 9.0 | 0.00 | 0.00 | 0.00 | 36 | 1013.0 |
| 20260504202521 | 55 | 304 | 8.0 | 13.0 | 0.00 | 0.00 | 0.00 | 37 | 1013.2 |
| 20260504201518 | 55 | 300 | 8.0 | 12.0 | 0.00 | 0.00 | 0.00 | 37 | 1013.4 |
| 20260504200541 | 54 | 311 | 6.0 | 9.0 | 0.00 | 0.00 | 0.00 | 40 | 1013.6 |
| 20260504195518 | 54 | 300 | 8.0 | 11.0 | 0.00 | 0.00 | 0.00 | 41 | 1013.7 |
| 20260504194538 | 54 | 343 | 7.0 | 14.0 | 0.00 | 0.00 | 0.00 | 39 | 1013.6 |
| 20260504193519 | 55 | 10 | 7.0 | 12.0 | 0.00 | 0.00 | 0.00 | 34 | 1013.4 |
| 20260504192519 | 55 | 357 | 7.0 | 10.0 | 0.00 | 0.00 | 0.00 | 33 | 1013.5 |
| 20260504191519 | 55 | 359 | 7.0 | 11.0 | 0.00 | 0.00 | 0.00 | 32 | 1013.6 |
| 20260504190520 | 57 | 292 | 8.0 | 11.0 | 0.00 | 0.00 | 0.00 | 31 | 1013.5 |
| 20260504185520 | 58 | 326 | 7.0 | 11.0 | 0.00 | 0.00 | 0.00 | 29 | 1013.5 |
| 20260504184517 | 58 | 324 | 9.0 | 16.0 | 0.00 | 0.00 | 0.00 | 29 | 1013.6 |
| 20260504183537 | 57 | 323 | 7.0 | 12.0 | 0.00 | 0.00 | 0.00 | 29 | 1013.8 |
| 20260504182520 | 58 | 302 | 9.0 | 15.0 | 0.00 | 0.00 | 0.00 | 29 | 1013.9 |
| 20260504181538 | 58 | 294 | 11.0 | 19.0 | 0.00 | 0.00 | 0.00 | 27 | 1014.0 |
| 20260504180518 | 57 | 304 | 8.0 | 15.0 | 0.00 | 0.00 | 0.00 | 28 | 1014.1 |
| 20260504175538 | 57 | 300 | 9.0 | 14.0 | 0.00 | 0.00 | 0.00 | 29 | 1014.1 |
| 20260504174518 | 57 | 320 | 9.0 | 15.0 | 0.00 | 0.00 | 0.00 | 30 | 1014.2 |
| 20260504173558 | 56 | 293 | 11.0 | 20.0 | 0.00 | 0.00 | 0.00 | 30 | 1014.2 |
| 20260504172522 | 56 | 327 | 9.0 | 13.0 | 0.00 | 0.00 | 0.00 | 30 | 1014.4 |
| 20260504171539 | 56 | 326 | 8.0 | 12.0 | 0.00 | 0.00 | 0.00 | 32 | 1014.5 |
| 20260504170539 | 55 | 311 | 8.0 | 13.0 | 0.00 | 0.00 | 0.00 | 33 | 1014.5 |
| 20260504150521 | 51 | 349 | 6.0 | 10.0 | 0.00 | 0.00 | 0.00 | 43 | 1015.9 |
| 20260504140519 | 50 | 358 | 6.0 | 10.0 | 0.00 | 0.00 | 0.00 | 48 | 1015.6 |
| 20260504130517 | 43 | 260 | 4.0 | 7.0 | 0.00 | 0.00 | 0.00 | 64 | 1015.3 |
| 20260504110520 | 43 | 139 | 7.0 | 11.0 | 0.00 | 0.00 | 0.00 | 62 | 1015.3 |
| 20260504100517 | 43 | 273 | 16.0 | 24.0 | 0.00 | 0.00 | 0.00 | 60 | 1015.7 |
| 20260504081528 | 35 | 137 | 2.0 | 4.0 | 0.00 | 0.00 | 0.00 | 71 | 1015.9 |
| 20260504080522 | 36 | 193 | 4.0 | 6.0 | 0.00 | 0.00 | 0.00 | 65 | 1016.0 |
| 20260504050532 | 47 | 109 | 2.0 | 3.0 | 0.00 | 0.00 | 0.00 | 48 | 1016.8 |
| 20260504045532 | 47 | 181 | 3.0 | 4.0 | 0.00 | 0.00 | 0.00 | 47 | 1016.9 |
| 20260504044532 | 48 | 191 | 2.0 | 3.0 | 0.00 | 0.00 | 0.00 | 44 | 1017.0 |
| 20260504043532 | 47 | 325 | 1.0 | 3.0 | 0.00 | 0.00 | 0.00 | 40 | 1017.0 |
| 20260504042517 | 47 | 103 | 2.0 | 3.0 | 0.00 | 0.00 | 0.00 | 51 | 1017.0 |
| 20260504041518 | 47 | 129 | 3.0 | 4.0 | 0.00 | 0.00 | 0.00 | 47 | 1017.0 |
| 20260504040538 | 48 | 150 | 4.0 | 4.0 | 0.00 | 0.00 | 0.00 | 49 | 1017.0 |
| 20260504035518 | 49 | 128 | 2.0 | 2.0 | 0.00 | 0.00 | 0.00 | 42 | 1017.0 |
| 20260504034539 | 49 | 103 | 2.0 | 3.0 | 0.00 | 0.00 | 0.00 | 44 | 1017.0 |
| 20260504033559 | 49 | 156 | 2.0 | 3.0 | 0.00 | 0.00 | 0.00 | 43 | 1017.0 |
| 20260504032518 | 50 | 169 | 2.0 | 3.0 | 0.00 | 0.00 | 0.00 | 40 | 1016.9 |
| 20260504031519 | 50 | 64 | 2.0 | 3.0 | 0.00 | 0.00 | 0.00 | 39 | 1016.9 |
| 20260504030539 | 50 | 22 | 1.0 | 2.0 | 0.00 | 0.00 | 0.00 | 37 | 1016.7 |
| 20260504025522 | 50 | 62 | 3.0 | 5.0 | 0.00 | 0.00 | 0.00 | 40 | 1016.6 |